Regional Weather Roundup
Issued by NWS

Home | Current Version | Previous Version | Graphics & Text | Print | Product List | Glossary Off
Versions: 1 2 3 4 5 6 7 8 9 10 11 12 13 14 15 16 17 18 19 20 21 22 23 24 25 26 27 28 29 30 31 32 33 34 35 36 37 38 39 40 41 42 43 44 45 46 47 48 49 50

000
ASUS43 KTOP 180359
RWRKS

WEATHER ROUNDUP FOR KANSAS
NATIONAL WEATHER SERVICE GOODLAND KS
1000 PM CST TUE JAN 17 2017

NOTE:  "FAIR" INDICATES FEW OR NO CLOUDS BELOW 12,000 FEET WITH NO
SIGNIFICANT WEATHER AND/OR OBSTRUCTIONS TO VISIBILITY.

KSZ001>006-013>018-027>032-041>047-180500-
NORTHWEST KANSAS

CITY           SKY/WX    TMP DP  RH WIND       PRES   REMARKS
GOODLAND       CLEAR     36  30  79 SW16      30.05R WCI  26
HAYS           CLEAR     31  27  85 SW5       30.13R
HILL CITY      CLEAR     32  26  78 SW7       30.10S
RUSSELL        CLEAR     30  27  88 S9        30.11S
$$

KSZ061>065-074>080-084>089-180500-
SOUTHWEST KANSAS

CITY           SKY/WX    TMP DP  RH WIND       PRES   REMARKS
DODGE CITY     CLOUDY    35  29  78 SE5       30.12F
ELKHART          N/A     34  26  72 S8          N/A
GARDEN CITY    CLEAR     32  27  81 SE7       30.11R
GREAT BEND     CLOUDY    30  27  88 CALM      30.13F
LIBERAL        CLEAR     36  27  69 S5        30.12S
$$

KSZ066>073-081>083-090>101-180500-
SOUTHEAST KANSAS

CITY           SKY/WX    TMP DP  RH WIND       PRES   REMARKS
CHANUTE        CLOUDY    31  29  92 S7        30.18S
COFFEYVILLE    CLOUDY    35  33  92 CALM      30.20R
HUTCHINSON     CLOUDY    29  26  89 CALM      30.15S
MEDICINE LODGE   N/A     36  31  82 E3        30.15S
NEWTON         CLOUDY    38  31  76 SW5       30.15F
PARSONS        CLOUDY    34  33  96 CALM      30.21R
WICHITA INTL   CLOUDY    36  33  89 S3        30.16R
WICHITA JABRA  CLOUDY    37  31  78 S6        30.16R
WINFIELD       CLOUDY    39  34  82 S3        30.18S
$$

KSZ007>012-019>026-033>040-048>060-102>105-180500-
NORTHEAST KANSAS

CITY           SKY/WX    TMP DP  RH WIND       PRES   REMARKS
CONCORDIA      CLOUDY    34  29  82 S16       30.12R WCI  24
EMPORIA        CLOUDY    31  27  85 CALM      30.14F
LAWRENCE       CLEAR     27  27 100 SE6       30.16S FOG
MANHATTAN      CLOUDY    26  24  92 SW5       30.14F
OLATHE IND     CLEAR     29  29 100 S3        30.15F FOG
OLATHE EXE     CLEAR     30  30 100 S5        30.16S FOG
SALINA         CLEAR     30  27  88 SE5       30.15R
TOPEKA BILLARD CLOUDY    31  26  82 S3        30.15F
TOPEKA FORBES  CLOUDY    29  26  89 S5        30.14F
$$




USA.gov is the U.S. government's official web portal to all federal, state and local government web resources and services.